[[{"header":{"parameterUnit":"m.s-1","parameterCategory":1,"la1":30.2991,"la2":30.254,"lo1":-89.0895,"lo2":-89.0444,"dy":0.0017,"dx":0.0017,"nx":28,"ny":28,"refTime":"2024-05-23T09:00:00:Z","depth":0,"parameterNumber":2,"parameterNumberName":"U-component_of_WINDS"},"data":[0,0,0,0,0,0,0,0,0,0,0,0,0,0,0,0,0,0,0,0,0,0,0,0,0,0,0,0,0,0,0,0,0,0,0,0,0,0,0,0,0,0,0,0,0,0,0,0,0,0,0,0,0,0,0,0,0,0,-1.813,-1.813,0,-1.8104,-1.8103,-1.8103,-1.8057,-1.8056,-1.8055,-1.8054,-1.8026,-1.8026,-1.8026,0,0,0,0,0,0,0,0,0,0,0,0,0,-1.8142,-1.8142,-1.813,-1.813,-1.813,-1.8104,-1.8103,-1.8103,-1.8057,-1.8056,-1.8055,-1.8054,-1.8026,-1.8026,-1.8026,0,0,0,0,0,0,0,0,0,0,0,0,0,-1.8128,-1.8142,-1.813,-1.8104,-1.8101,-1.8104,-1.8103,-1.8103,-1.8057,-1.8056,-1.8054,-1.8053,-1.8026,-1.8026,-1.8026,-1.8053,0,0,-1.8027,-1.8027,0,0,0,0,0,0,0,0,-1.8129,-1.8128,-1.8108,-1.8105,-1.8102,-1.8082,-1.8097,-1.8086,-1.8057,-1.8074,-1.8054,-1.8053,-1.8046,-1.8044,-1.8042,-1.8052,-1.8051,-1.8027,-1.8027,-1.8027,-1.8027,0,0,0,0,0,0,0,-1.813,-1.8129,-1.812,-1.8108,-1.8104,-1.8093,-1.809,-1.8095,-1.8067,-1.8072,-1.8069,-1.8066,-1.8044,-1.8042,-1.8041,-1.805,-1.8027,-1.8027,-1.8027,-1.8027,-1.8081,-1.8082,0,0,0,0,0,0,-1.8135,-1.813,-1.8121,-1.8119,-1.8113,-1.8094,-1.809,-1.809,-1.8067,-1.8062,-1.8067,-1.8064,-1.8043,-1.8041,-1.804,-1.807,-1.8027,-1.8027,-1.8027,-1.808,-1.8081,-1.8083,0,0,0,0,0,0,-1.8136,-1.8135,-1.8122,-1.8124,-1.8121,-1.8095,-1.8095,-1.809,-1.8088,-1.8064,-1.8058,-1.807,-1.8041,-1.804,-1.805,-1.8068,-1.8027,-1.8027,-1.8078,-1.808,-1.8082,-1.813,0,0,0,0,0,0,-1.8136,-1.8135,-1.8145,-1.8124,-1.8121,-1.8133,-1.8096,-1.8091,-1.8088,-1.8084,-1.8065,-1.8061,-1.804,-1.805,-1.805,-1.8067,-1.8027,-1.8076,-1.8079,-1.8082,-1.8126,-1.8133,-1.8139,0,0,0,0,0,-1.8137,-1.8159,-1.8146,-1.8145,-1.8133,-1.8134,-1.8132,-1.8108,-1.809,-1.81,-1.8084,-1.8061,-1.8067,-1.8052,-1.8051,-1.8069,-1.8075,-1.8078,-1.8081,-1.8123,-1.8132,-1.8139,0,0,0,0,0,0,-1.8182,-1.8156,-1.814,-1.8157,-1.8148,-1.8126,-1.8137,-1.8118,-1.8113,-1.8109,-1.808,-1.8076,-1.8091,-1.8081,-1.8065,-1.8094,-1.8067,-1.807,-1.8099,-1.8107,-1.8113,-1.8115,-1.8027,0,0,0,0,0,-1.8194,-1.8197,-1.8174,-1.8191,-1.8187,-1.8163,-1.8163,-1.8145,-1.8135,-1.8131,-1.8116,-1.8106,-1.8106,-1.8106,-1.8104,-1.8125,-1.812,-1.8137,-1.8143,-1.8149,-1.8151,-1.8162,-1.8169,-1.8093,-1.8093,-1.8093,0,0,-1.8219,-1.8205,-1.8208,-1.8199,-1.819,-1.8194,-1.816,-1.8165,-1.8168,-1.8131,-1.814,-1.8129,-1.8117,-1.8133,-1.8139,-1.8125,-1.8171,-1.8153,-1.8157,-1.8157,-1.8166,-1.8173,-1.8179,-1.8095,-1.8095,-1.8094,0,0,-1.8265,-1.8255,-1.8268,-1.826,-1.8247,-1.8231,-1.8234,-1.8216,-1.8207,-1.8216,-1.8188,-1.8191,-1.8191,-1.8184,-1.818,-1.8225,-1.8204,-1.8226,-1.8258,-1.8268,-1.8274,-1.8279,-1.8295,-1.8301,-1.8229,-1.8229,-1.8229,0,-1.8297,-1.8302,-1.8277,-1.8284,-1.8281,-1.8249,-1.8262,-1.8255,-1.8243,-1.8241,-1.8226,-1.8226,-1.8215,-1.8229,-1.824,-1.8238,-1.8241,-1.8227,-1.8275,-1.828,-1.8285,-1.83,-1.8306,-1.8231,-1.8231,-1.8231,-1.8231,0,-1.8342,-1.8346,-1.8358,-1.8346,-1.8345,-1.8355,-1.8332,-1.8333,-1.8317,-1.8303,-1.8313,-1.8299,-1.8294,-1.8297,-1.828,-1.8308,-1.83,-1.8281,-1.8253,-1.8295,-1.8309,-1.8314,-1.8235,-1.8234,-1.8233,-1.8233,0,0,-1.8415,-1.8391,-1.8395,-1.839,-1.8374,-1.8376,-1.8386,-1.8381,-1.8383,-1.8376,-1.8382,-1.8384,-1.8366,-1.8362,-1.8345,-1.8354,-1.8391,-1.8333,-1.8333,-1.8344,-1.8421,-1.8435,-1.8442,-1.8377,-1.8378,-1.8379,-1.8422,0,-1.8457,-1.8471,-1.8449,-1.8468,-1.8471,-1.8442,-1.845,-1.8441,-1.8428,-1.843,-1.8416,-1.8417,-1.8394,-1.8391,-1.8399,-1.8385,-1.8406,-1.8382,-1.8383,-1.8383,-1.8386,-1.8449,-1.8464,-1.8505,-1.8427,-1.8428,-1.8429,0,-1.8508,-1.8504,-1.8523,-1.8506,-1.8507,-1.8514,-1.8509,-1.851,-1.85,-1.8491,-1.8487,-1.8467,-1.8475,-1.8449,-1.846,-1.8444,-1.8444,-1.8437,-1.8438,-1.8436,-1.8408,-1.8449,-1.8517,-1.8523,-1.8437,-1.8436,-1.8436,0,-1.8559,-1.8558,-1.8569,-1.8566,-1.8547,-1.8553,-1.8545,-1.8534,-1.8533,-1.8528,-1.8527,-1.8524,-1.8522,-1.852,-1.85,-1.8483,-1.8513,-1.8486,-1.8505,-1.8506,-1.8512,-1.8511,-1.858,-1.8513,-1.8513,-1.8513,-1.8513,0,-1.8608,-1.8621,-1.8592,-1.8599,-1.8612,-1.8588,-1.8602,-1.8592,-1.8582,-1.8587,-1.8561,-1.8566,-1.8539,-1.8542,-1.8526,-1.8537,-1.8537,-1.8529,-1.8524,-1.8531,-1.8532,-1.8529,-1.8526,-1.8515,-1.8514,-1.8514,-1.8514,0,-1.8667,-1.8648,-1.8658,-1.864,-1.8635,-1.8646,-1.8631,-1.8636,-1.8623,-1.8629,-1.8629,-1.8608,-1.8609,-1.8589,-1.8586,-1.8576,-1.8594,-1.8585,-1.8597,-1.8594,-1.8614,-1.8613,-1.8684,-1.8692,-1.862,-1.8621,-1.8622,0,-1.8699,-1.8708,-1.8691,-1.8692,-1.8686,-1.8688,-1.8687,-1.8664,-1.8664,-1.8654,-1.8661,-1.8661,-1.8659,-1.8662,-1.8647,-1.8645,-1.8635,-1.866,-1.8634,-1.864,-1.8634,-1.8634,-1.8635,-1.8665,-1.8666,-1.8667,-1.8667,0,-1.8758,-1.8749,-1.8748,-1.8744,-1.8744,-1.874,-1.8735,-1.8737,-1.8712,-1.8714,-1.8715,-1.8713,-1.8711,-1.8711,-1.8706,-1.8698,-1.8679,-1.8676,-1.868,-1.8686,-1.8693,-1.8689,-1.8611,-1.8674,-1.8673,-1.8673,-1.8672,-1.8672,-1.8804,-1.8811,-1.88,-1.88,-1.8794,-1.879,-1.8794,-1.8782,-1.8782,-1.8778,-1.8765,-1.8769,-1.8759,-1.8751,-1.8745,-1.8748,-1.8735,-1.8742,-1.8743,-1.8745,-1.8748,-1.8693,-1.8747,-1.8747,-1.8746,-1.8746,-1.8746,0,-1.8862,-1.8853,-1.8854,-1.8847,-1.8848,-1.883,-1.8823,-1.8825,-1.8828,-1.8821,-1.882,-1.8821,-1.8821,-1.8806,-1.8804,-1.8809,-1.88,-1.881,-1.8809,-1.8807,-1.876,-1.8756,-1.8817,-1.8817,-1.8817,-1.8817,-1.8817,-1.8817,-1.8891,-1.8902,-1.8891,-1.8899,-1.8891,-1.8894,-1.8891,-1.8888,-1.8882,-1.8885,-1.8884,-1.8875,-1.8865,-1.8862,-1.8861,-1.8857,-1.8857,-1.8869,-1.8862,-1.8817,-1.881,-1.8804,-1.88,-1.887,-1.887,-1.8909,-1.8909,-1.891]},{"header":{"parameterUnit":"m.s-1","parameterCategory":1,"la1":30.2991,"la2":30.254,"lo1":-89.0895,"lo2":-89.0444,"dy":0.0017,"dx":0.0017,"nx":28,"ny":28,"refTime":"2024-05-23T09:00:00:Z","depth":0,"parameterNumber":3,"parameterNumberName":"V-component_of_WINDS"},"data":[0,0,0,0,0,0,0,0,0,0,0,0,0,0,0,0,0,0,0,0,0,0,0,0,0,0,0,0,0,0,0,0,0,0,0,0,0,0,0,0,0,0,0,0,0,0,0,0,0,0,0,0,0,0,0,0,0,0,3.945,3.945,0,3.9438,3.9438,3.9438,3.9454,3.9454,3.9455,3.9455,3.9439,3.9438,3.9437,0,0,0,0,0,0,0,0,0,0,0,0,0,3.9484,3.9483,3.945,3.945,3.945,3.9438,3.9438,3.9438,3.9453,3.9454,3.9455,3.9456,3.9439,3.9438,3.9437,0,0,0,0,0,0,0,0,0,0,0,0,0,3.947,3.9483,3.945,3.9456,3.9457,3.9438,3.9438,3.9438,3.9453,3.9454,3.9455,3.9456,3.944,3.9438,3.9437,3.941,0,0,3.9432,3.9432,0,0,0,0,0,0,0,0,3.9471,3.9469,3.9456,3.9456,3.9456,3.9448,3.9444,3.9428,3.9453,3.9454,3.9455,3.9456,3.9441,3.944,3.9435,3.9409,3.9409,3.9432,3.9431,3.9431,3.943,0,0,0,0,0,0,0,3.9472,3.9469,3.9445,3.9455,3.9456,3.9459,3.9458,3.9441,3.9443,3.9454,3.9456,3.9454,3.9441,3.9437,3.9435,3.9409,3.9432,3.9431,3.943,3.9429,3.9361,3.9361,0,0,0,0,0,0,3.9473,3.947,3.9446,3.9445,3.9466,3.9457,3.9456,3.945,3.9443,3.9443,3.9453,3.9455,3.9439,3.9437,3.9434,3.9404,3.9431,3.9429,3.9428,3.9362,3.9361,3.936,0,0,0,0,0,0,3.9473,3.947,3.9446,3.9458,3.9455,3.9456,3.9449,3.9449,3.9444,3.9442,3.9443,3.9448,3.9439,3.9437,3.9417,3.9403,3.9429,3.9427,3.9363,3.9362,3.9361,3.9341,0,0,0,0,0,0,3.9474,3.947,3.9461,3.9458,3.9454,3.9429,3.9448,3.9448,3.9442,3.9444,3.9438,3.9437,3.944,3.9419,3.9415,3.9402,3.9426,3.9365,3.9363,3.9361,3.9343,3.934,3.9336,0,0,0,0,0,3.9475,3.9455,3.946,3.9457,3.9443,3.9428,3.9426,3.9431,3.9441,3.9431,3.943,3.9438,3.9405,3.9417,3.9413,3.9399,3.9365,3.9363,3.9361,3.9345,3.934,3.9336,0,0,0,0,0,0,3.9455,3.9454,3.946,3.9438,3.9434,3.9431,3.9419,3.9426,3.9416,3.9418,3.9423,3.9421,3.9401,3.9397,3.941,3.9373,3.9387,3.9384,3.9376,3.9372,3.9368,3.9369,3.9425,0,0,0,0,0,3.9448,3.9437,3.9437,3.9418,3.9415,3.9417,3.9411,3.9415,3.941,3.9407,3.9405,3.9398,3.9387,3.9379,3.9368,3.9343,3.9342,3.9331,3.9328,3.9325,3.9322,3.931,3.9305,3.9353,3.9353,3.9353,0,0,3.9433,3.9432,3.9424,3.9414,3.941,3.9399,3.9415,3.9402,3.9393,3.9405,3.9387,3.9384,3.9377,3.9355,3.9345,3.9352,3.9309,3.9323,3.932,3.9319,3.9307,3.9303,3.9299,3.9352,3.9352,3.9352,0,0,3.94,3.9398,3.9382,3.9379,3.9375,3.9376,3.9373,3.937,3.9369,3.9351,3.936,3.9349,3.9329,3.9324,3.9319,3.9286,3.9293,3.9282,3.9264,3.9252,3.9248,3.9245,3.9233,3.9229,3.928,3.928,3.928,0,3.9382,3.9366,3.9373,3.936,3.9355,3.9367,3.935,3.9346,3.9338,3.9334,3.9342,3.9318,3.9314,3.9291,3.9284,3.9279,3.9274,3.9283,3.9248,3.9245,3.9242,3.9231,3.9227,3.9278,3.9279,3.9279,3.9279,0,3.9344,3.9333,3.9321,3.9314,3.9308,3.9293,3.9297,3.9289,3.9294,3.9295,3.9277,3.9273,3.9262,3.9257,3.9261,3.9235,3.9239,3.9248,3.9262,3.9236,3.9226,3.9222,3.9277,3.9277,3.9277,3.9278,0,0,3.9297,3.9296,3.9292,3.9289,3.9286,3.9277,3.9262,3.9253,3.9247,3.9241,3.9229,3.9213,3.9221,3.9215,3.9219,3.9208,3.9183,3.9218,3.9218,3.9212,3.9155,3.9149,3.9144,3.9187,3.9187,3.9186,3.9156,0,3.9265,3.9242,3.9249,3.9225,3.9215,3.9227,3.9214,3.921,3.9211,3.9202,3.9202,3.9191,3.9202,3.9199,3.9189,3.9188,3.9172,3.919,3.9176,3.9175,3.9178,3.9139,3.9132,3.9103,3.9152,3.9151,3.9151,0,3.9225,3.9219,3.9195,3.9195,3.9191,3.918,3.9172,3.9164,3.9159,3.9161,3.9155,3.9161,3.9147,3.9161,3.9141,3.9154,3.9148,3.9147,3.9146,3.9145,3.9161,3.9137,3.9094,3.909,3.9144,3.9145,3.9145,0,3.9194,3.918,3.9164,3.9162,3.916,3.9153,3.9151,3.9148,3.9143,3.9136,3.9133,3.9124,3.9119,3.9112,3.9115,3.9125,3.9095,3.9109,3.9095,3.9095,3.9088,3.9088,3.9044,3.9084,3.9084,3.9084,3.9084,0,3.9158,3.9142,3.9151,3.9141,3.9125,3.9132,3.9115,3.9115,3.9112,3.9102,3.9111,3.9102,3.9107,3.9097,3.9099,3.9083,3.908,3.9081,3.9082,3.908,3.908,3.9076,3.9079,3.9083,3.9083,3.9084,3.9084,0,3.912,3.9125,3.9109,3.9109,3.9109,3.9097,3.9097,3.9088,3.909,3.9077,3.9075,3.9077,3.9067,3.907,3.9057,3.9059,3.9039,3.9042,3.904,3.9041,3.9027,3.9028,3.8979,3.8973,3.9017,3.9016,3.9016,0,3.9097,3.9086,3.9086,3.9081,3.9079,3.907,3.9066,3.9072,3.9067,3.9062,3.9053,3.9044,3.9037,3.9019,3.9019,3.901,3.9014,3.8997,3.9012,3.9012,3.9014,3.9015,3.9014,3.8994,3.8993,3.8993,3.8993,0,3.9055,3.9058,3.9052,3.9046,3.904,3.9036,3.9032,3.9027,3.9033,3.9026,3.9017,3.9011,3.9,3.8991,3.8983,3.8981,3.8988,3.8988,3.8984,3.8983,3.8983,3.8983,3.9032,3.8989,3.8989,3.899,3.899,3.899,3.9024,3.9015,3.9015,3.9007,3.9005,3.9002,3.8994,3.8995,3.8988,3.898,3.8984,3.8973,3.897,3.896,3.8957,3.8948,3.8954,3.8949,3.8948,3.8946,3.8945,3.8984,3.8947,3.8947,3.8947,3.8947,3.8947,0,3.8983,3.8984,3.8977,3.8972,3.8966,3.8975,3.8971,3.8966,3.8956,3.8953,3.8947,3.8936,3.8927,3.8927,3.8919,3.8912,3.8915,3.8909,3.891,3.8909,3.8939,3.8944,3.8907,3.8907,3.8907,3.8907,3.8907,3.8907,3.8962,3.8948,3.8951,3.8936,3.8937,3.8927,3.8924,3.8921,3.8919,3.8907,3.89,3.8901,3.8899,3.8891,3.8884,3.8884,3.888,3.8874,3.8875,3.8903,3.8907,3.8911,3.8915,3.8873,3.8873,3.8846,3.8846,3.8846]}]]